الصفحة الرئيسية
METAR-TAF:

METAR-TAF

مطار :

Perry Stokes Airport

Trinidad, كولورادو, الولايات المتحدة

دائرة عرض: 37-16N, خط طول: 104-26W, ارتفاع: 1756 متر

مراقبة الطقس الحالي

تاريخ ووقت الإصدار 55 دقيقة قبل الساعة 21:54UTC
ريح 10 عقدة من الشرق/الجنوب الشرقي تتزايد حتى 17 عقدة
درجة الحرارة 28°درجة مئوية
الرطوبة 16%
ضغط 1021 hPa
الرؤية: 16.1 كم
سماء صافية

METAR: KTAD 222154Z AUTO 11010G17KT 10SM CLR 28/00 A3015 RMK AO2 SLP132 T02830000

زمن: 16:49 (22:49 UTC)


TAF: مفقودة

أرصاد الطقس والتوقعات من أكثر من 4000 مطار (تقارير الطقس للمطار METAR والتنبؤ بالطقس بالمطارTAF).

المحطات المتاحة هي النقط الصفراء والحمراء على الخريطة.

حرك المؤشر فوق النقطة لمعرفة اسم المحطة.

ثم انقر لمعرفة أرصاد وتوقعات الطقس.

لتغيير الخارطة: اضغط على الأزرار الخضراء مع رمز الصليب الأسود للتكبير. على الزر الأخضر مع شرطة للتصغير، أو على الأسهم الخضراء للخرائط المجاورة.


METAR-TAF: